Home > Time Zones > World Clock > Weather > U.S.A. > Bend > Past weeks

Flag Weather past 2 weeks in Bend, Oregon, U.S.A.

Now
47 °F

Fog.


Feels Like: 46 °F
Forecast: 39 / 51 °F
Wind: 3 mph from Southeast

Location: Roberts Field Airport

Current Time: Oct 31, 2014 at 2:58:59 AM

Latest Report: Oct 31, 2014 at 1:56 AM


Visibility: 5 mi

Pressure: 29.76 "Hg

Humidity: 97%

Dew point: 46 °F

Location of BendLocation

Historic Weather in Bend — Graph

°F

Bend temperature yesterday

Maximum temperature yesterday: 63 °F (at 2:56 PM)
Minimum temperature yesterday: 45 °F (at 7:56 AM)
Average temperature yesterday: 51 °F

Past Weeks' High & Low Weather Summary

 TemperatureHumidityPressure
High76 °F (Oct 19, 3:56 PM)100% (Oct 29, 1:56 AM)30.20 "Hg (Oct 29, 1:56 AM)
Low25 °F (Oct 27, 4:56 AM)22% (Oct 19, 3:56 PM)29.48 "Hg (Oct 25, 1:56 PM)
Average50 °F69%29.93 "Hg
* Reported Oct 16 1:56 AM — Oct 31 1:56 AM, Bend, Weather by CustomWeather, © 2014

Note: Actual official high and low records may vary slightly from our data, if they occured in-between our weather recording intervals... More about our weather records

Advertising

Bend weather history for previous 24 hours

 ConditionsComfort  
Time TempWeatherWind HumidityBarometerVisibility
1:56 AM
Oct 31
47 °FFog.3 mph97%29.76 "Hg5 mi
12:56 AM47 °FFog.3 mph100%29.78 "Hg5 mi
11:56 PM
Oct 30
49 °FPassing clouds.No wind97%29.79 "Hg7 mi
10:56 PM49 °FPassing clouds.8 mph97%29.80 "Hg7 mi
9:56 PM49 °FPartly cloudy.9 mph97%29.80 "Hg8 mi
8:56 PM50 °FPassing clouds.10 mph93%29.79 "Hg10 mi
7:56 PM50 °FPassing clouds.9 mph93%29.80 "Hg10 mi
6:56 PM52 °FSunny.7 mph89%29.79 "Hg10 mi
5:56 PM55 °FSunny.3 mph83%29.79 "Hg10 mi
4:56 PM60 °FSunny.5 mph75%29.81 "Hg10 mi
3:56 PM63 °FSunny.No wind60%29.83 "Hg10 mi
2:56 PM63 °FSunny.No wind58%29.84 "Hg10 mi
1:56 PM62 °FSunny.No wind62%29.88 "Hg10 mi
12:56 PM60 °FSunny.No wind62%29.91 "Hg10 mi
11:56 AM54 °FPassing clouds.No wind83%29.95 "Hg10 mi
10:56 AM51 °FOvercast.No wind92%29.98 "Hg8 mi
9:56 AM48 °FFog.3 mph100%30.00 "Hg5 mi
8:56 AM47 °FPartly sunny.No wind97%30.00 "Hg8 mi
7:56 AM45 °FPassing clouds.3 mph100%30.02 "Hg10 mi
6:56 AM47 °FPassing clouds.5 mph97%30.01 "Hg9 mi
5:56 AM47 °FPassing clouds.5 mph97%30.01 "Hg10 mi
4:56 AM47 °FOvercast.No wind97%30.01 "Hg10 mi
3:56 AM46 °FLight rain. Mostly cloudy.3 mph96%30.03 "Hg8 mi
2:56 AM46 °FLight rain. Mostly cloudy.No wind96%30.06 "Hg7 mi
Weather by CustomWeather, © 2014

See weather overviewHow to use our weather pages